#timestamp,LO_Frequency,Hit 
1505188815.2,286047001.9,N
1505188835.0,286047002.8,N
1505188835.9,286047002.8,N
1505188855.7,286046997.0,N
1505188875.6,286047001.0,N
1505188895.4,286047003.2,N
1505188915.2,286047006.8,N
1505188935.1,286047004.7,N
1505188936.0,286047004.7,N
1505188955.8,286047004.7,N
1505188975.6,286047004.5,N
1505188995.5,286047007.1,N
1505189015.3,286047007.1,N
1505189035.1,286047008.7,N
1505189055.9,286047006.1,N
1505189075.7,286047008.0,N
1505189095.5,286047010.8,N
1505189115.4,286047010.8,N
1505189135.2,286047007.8,N
1505189155.0,286047009.5,N
1505189155.9,286047009.5,N
1505189175.7,286047012.1,N
1505189195.6,286047011.6,N
1505189215.4,286047009.3,N
1505189235.2,286047009.8,N
1505189255.1,286047009.9,N
1505189256.0,286047009.9,N
1505189275.8,286047008.5,N
1505189295.6,286047006.9,N
1505189315.5,286047005.4,N
1505189335.3,286047003.4,N
1505189355.1,286047008.9,N
1505189375.9,286047008.4,N
1505189395.7,286047008.3,N
1505189415.5,286047010.6,P
1505189435.4,286046999.8,N
1505189455.2,286046999.6,N
1505189475.0,286046998.9,N
1505189475.9,286046998.9,N
1505189495.8,286046995.0,N
1505189515.6,286046996.9,N
1505189535.4,286046999.8,N
1505189555.3,286047005.9,N
1505189575.1,286047006.9,N
1505189576.0,286047006.9,N
1505189595.8,286047010.7,N
1505189615.7,286047007.0,N
1505189635.5,286046998.9,N
1505189655.3,286046995.7,N
1505189675.1,286046990.4,N
1505189695.9,286046992.8,N
1505189715.7,286046994.9,N
1505189735.5,286047000.8,N
1505189755.4,286047003.8,N
1505189775.2,286047005.0,N
1505189795.0,286047007.2,N
1505189795.9,286047007.2,N
1505189815.8,286047010.4,N
1505189835.6,286047011.4,N
1505189855.4,286047009.9,N
1505189875.3,286047010.5,N
1505189895.1,286047009.1,N
1505189896.0,286047009.1,N
1505189915.8,286047002.3,N
1505189935.7,286046995.0,N
1505189955.5,286047000.7,N
1505189975.3,286047003.1,N
1505189995.1,286047000.9,N
1505190015.9,286046996.5,N
1505190035.7,286047000.0,N
1505190055.5,286047002.2,N
1505190075.4,286047008.4,N
1505190095.2,286047009.3,N
1505190115.0,286047009.6,N
1505190115.9,286047009.6,N
1505190135.8,286047009.9,N
1505190155.6,286047001.4,N
1505190175.4,286047002.6,N
1505190195.3,286047003.9,N
1505190215.1,286047005.1,N
1505190216.0,286047005.1,N
1505190235.8,286047012.3,N
1505190255.7,286047011.2,N
1505190275.5,286047009.7,N
1505190295.3,286047008.4,N
1505190315.2,286047008.0,N
1505190335.9,286047008.8,N
1505190355.7,286047008.3,N
1505190375.5,286047010.1,N
1505190395.4,286047006.6,N
1505190415.2,286047006.4,N
1505190435.0,286047006.2,N
1505190435.9,286047006.2,N
1505190455.8,286047002.0,N
1505190475.6,286047001.7,N
1505190495.4,286047003.8,N
1505190515.3,286047007.2,N
1505190535.1,286047004.8,N
1505190555.8,286047001.8,N
1505190575.7,286047000.1,N
1505190595.5,286046997.3,N
1505190615.3,286047001.8,N
1505190635.2,286047004.6,N
1505190655.9,286047004.9,N
1505190675.7,286047003.6,N
1505190695.6,286047001.1,N
1505190715.4,286046998.6,N
1505190735.2,286047000.8,N
1505190755.0,286047007.6,N
1505190756.0,286047007.6,N
1505190775.8,286047007.4,N
1505190795.6,286047007.7,N
1505190815.4,286047008.5,N
1505190835.3,286047008.2,N
1505190855.1,286047010.7,P
1505190875.9,286047007.2,N
1505190895.7,286047009.6,P
1505190915.5,286047013.1,P
1505190935.4,286047000.7,N
1505190955.2,286046996.8,N
1505190975.0,286047000.0,N
1505190975.9,286047000.0,N
1505190995.8,286047002.2,N
1505191015.6,286046997.3,N
1505191035.4,286046999.9,N
1505191055.2,286047005.7,N
1505191075.1,286047006.8,N
1505191076.0,286047006.8,N
1505191095.8,286047008.2,N
1505191115.6,286047008.2,N
1505191135.5,286047008.7,N
1505191155.3,286047006.9,N
1505191175.1,286047008.4,N
1505191195.9,286047006.7,N
1505191215.7,286047003.0,N
1505191235.5,286046998.2,N
1505191255.4,286046996.9,N
1505191275.2,286046992.4,N
1505191295.0,286046993.8,N
1505191295.9,286046993.8,N
1505191315.8,286046992.3,N
1505191335.6,286046996.1,N
1505191355.4,286046993.8,N
1505191375.2,286046993.9,N
1505191395.1,286046996.6,N
1505191396.0,286046996.6,N
1505191415.8,286047000.2,N
1505191435.6,286047003.3,N
1505191455.5,286047001.3,N
1505191475.3,286047003.1,N
1505191495.1,286047007.6,N
1505191515.9,286047005.2,N
1505191535.7,286047007.6,N
1505191555.5,286047005.2,N
1505191575.4,286047001.6,N
1505191595.2,286047007.6,N
1505191615.0,286047007.5,N
1505191615.9,286047007.5,N
1505191635.8,286047004.2,N
1505191655.6,286047001.4,N
1505191675.4,286047005.8,N
1505191695.3,286047004.4,N
1505191715.1,286047002.9,N
1505191716.0,286047002.9,N
1505191735.8,286047007.3,N
1505191755.6,286047008.4,N
1505191775.5,286047006.2,N
1505191795.3,286047010.8,N
1505191815.1,286047011.2,N
1505191835.9,286047014.0,N
1505191855.7,286047013.3,N
1505191875.5,286047010.2,N
1505191895.4,286047001.3,N
1505191915.2,286047004.3,N
1505191935.0,286046998.2,N
1505191935.9,286046998.2,N
1505191955.8,286046998.1,N
1505191975.6,286047001.2,N
1505191995.4,286047002.4,N
1505192015.3,286046997.4,N
1505192035.1,286046993.3,N
1505192036.0,286046993.3,N
1505192055.8,286046995.7,N
1505192075.7,286046998.0,N
1505192095.5,286046995.8,N
1505192115.3,286046990.2,N
1505192135.2,286046989.4,N
1505192155.9,286046991.5,N
1505192175.7,286046989.1,N
1505192195.5,286046986.9,N
1505192215.4,286046988.3,N
1505192235.2,286046988.7,N
1505192255.0,286046992.8,N
1505192255.9,286046992.8,N
1505192275.8,286046990.0,N
1505192295.6,286046987.9,N
1505192315.4,286046989.2,N
1505192335.3,286046989.2,N
1505192355.1,286046988.8,N
1505192375.8,286046989.4,N
1505192395.7,286046991.1,N
